sat.trackr.live / text

‹ back to catalog

STARLINK-6241

NORAD 56409 · 2023-061AM

PAYLOAD ACTIVE UNKNOWN

§ Identity

Operator
Country
US
Launch date
2023-05-04
Launch site
AFETR
Launch vehicle
Mass (kg)
RCS (m²)

Purposes: comms

External: N2YO · Heavens-Above · Gunter

§ Orbital elements

Epoch: 2026-09-20T10:08:25.683936Z

Period
94.27 min
Inclination
43.0012°
Eccentricity
0.0000851
Mean motion
15.27576603 rev/d
Perigee alt
482.5 km
Apogee alt
483.6 km
Semi-major
6,861.2 km
B*
8.3849e-6
RAAN
167.5299°
Arg perigee
257.2626°
Mean anomaly
102.8131°
Rev number
18,665

§ Raw data

STARLINK-62411 56409U 23061AM  26263.42251949 -.00000031  00000+0  83849-5 0  99922 56409  43.0012 167.5299 0000851 257.2626 102.8131 15.27576603186653

JSON: /api/v1/satellites/56409 · /tle

For live sub-satellite position, see the globe view (requires WebGL).

§ Visibility from observer

Set your observer location to see the next 7 days of passes ≥ 10°. The values pass through the URL so the page stays shareable.

No JS? Fill the form by hand. The geolocation button needs JavaScript.